Overview Statistics Trail Chart Weather Telemetry Raw packets
 

This is the latest recevied weather packets stored in our database for station/object K1TTC. If no packets are shown the sender has not sent any weather packets the latest 10 day(s).

<< 34 35 36 37 38 39 40 >>
Time Temp. Humidity Pressure Rain* Wind** Luminosity Snow
1788105683 28.33° C 40% 1020.3 hPa 0 mm - 404 W/m² -
1788105083 28.89° C 42% 1020.2 hPa 0 mm - 473 W/m² -
1788104483 28.33° C 45% 1020 hPa 0 mm - 970 W/m² -
1788103884 28.33° C 47% 1020.2 hPa 0 mm - 854 W/m² -
1788103283 27.22° C 47% 1020.5 hPa 0 mm - 824 W/m² -
1788102684 27.22° C 47% 1020.8 hPa 0 mm - 503 W/m² -
1788102083 27.22° C 46% 1020.8 hPa 0 mm - 552 W/m² -
1788101486 27.22° C 45% 1020.8 hPa 0 mm - 566 W/m² -
1788100894 27.22° C 46% 1020.9 hPa 0 mm - 536 W/m² -
1788100280 26.67° C 49% 1021 hPa 0 mm - 789 W/m² -
1788099679 25.56° C 49% 1021 hPa 0 mm - 592 W/m² -
1788099080 25° C 50% 1021.1 hPa 0 mm - 666 W/m² -
1788098478 25° C 52% 1021.2 hPa 0 mm - 596 W/m² -
1788097878 24.44° C 54% 1021.3 hPa 0 mm - 603 W/m² -
1788097279 23.33° C 54% 1021.4 hPa 0 mm - 570 W/m² -
1788096682 22.78° C 55% 1021.4 hPa 0 mm - 568 W/m² -
1788096079 21.67° C 58% 1021.5 hPa 0 mm - 534 W/m² -
1788095478 21.11° C 60% 1021.6 hPa 0 mm - 448 W/m² -
1788094878 20.56° C 63% 1021.6 hPa 0 mm - 462 W/m² -
1788094276 19.44° C 67% 1021.7 hPa 0 mm - 359 W/m² -
1788093674 18.33° C 70% 1021.9 hPa 0 mm - 431 W/m² -
1788093073 17.22° C 73% 1021.9 hPa 0 mm - 380 W/m² -
1788092471 16.67° C 74% 1022 hPa 0 mm - 341 W/m² -
1788091869 16.11° C 74% 1022 hPa 0 mm - 77 W/m² -
1788091265 15.56° C 75% 1022 hPa 0 mm - 63 W/m² -

* Rain latest hour (hover to see other rain measurements)
** Current wind speed in m/s (hover to see current wind gust speed)